Location: Bakov nad Jizerou
(50.4784°N, 14.9394°E)
Time: 14:55:59
(UTC+00:00)

Cosmos 2346 Rocket - Pass Details

Date: 16 June 2021
Orbit: 937 x 980 km, 82.9° (Epoch: 03 August)

Event Time Altitude Azimuth Distance (km) Brightness Sun altitude
Exits shadow 22:40:47 24° 183° (S) 1,860 5.4 -16.0°
Maximum altitude 22:44:41 83° 97° (E) 968 4.4 -16.1°
Drops below altitude 10° 22:50:54 10° 11° (N) 2,711 8.1 -16.1°
Sets 22:53:25 0° 11° (N) 3,668 9.1 -16.1°
